COSMOS 1275 DEB, 13489

Orbit data source: Space-Track

COSMOS 1275 DEB, 13489 is space debris in LEO originally from a launch on Thu, 04 Jun 1981 UTC launched from the Plesetsk Missile And Space Complex (PKMTR). Debris objects in space refer to the collection of defunct objects orbiting the Earth. Examples of debris include non-operational satellites, rocket bodies, and fragments generated from explosions, collisions, or faulty payload assembly.

Loading next visibility...
Identifier
13489, 1981-053GK
Orbit
LEO
Country
Flag of CISCIS
Related business
Manufacturer
Unknown
Mission
Spacecraft
Bus & Motor
Unknown
Mass
Unknown
Launch date (UTC)
1981-06-04 (45 years ago)
Launch vehicle
Unknown
Launch site
Plesetsk Missile And Space Complex (PKMTR)
Object type
Payload
Rocket body
Debris
Shape & HBR
Unknown shape, 0.1 m
Radar Cross Section
Small (<0.1 m²)

Expand to show TLE details & history
Last TLE update: 9 hours ago

TLE from 9 hours ago
0 COSMOS 1275 DEB
1 13489U 81053GK  26034.41318459  .00000597  00000-0  87910-3 0  9991
2 13489  83.1368  29.9083 0237541 164.9249 349.8339 13.41854354124075
Epoch: 2026-02-03T09:54Z
TLE epoch observation values (Epoch: 2026-02-03T09:54:59.148Z)
Latitude
25.57017°
Longitude
-75.71678°
Altitude
930.641 km
Speed
7.475 km/s
True Right ascension
13h 46m 29s
True Declination
25° 26' 23"
Sunlit
Object was in daylight at epoch
Visualization orbit readout
Latitude
Unknown
Longitude
Unknown
Altitude
Unknown
Speed
Unknown
Apparent Right ascension
Unknown
Apparent Declination
Unknown
Sunlit
N/A
Visualization observer readout
Local Sidereal Time
20:21:02
Azimuth
Unknown
Elevation
Unknown
Doppler factor
Unknown
Orbital elements
Apogee altitude
1,277.191 km
Perigee altitude
921.939 km
Semi-major axis
7,477.702 km
Eccentricity
0.02375
Inclination
83.1368°
RAAN
29.9083°
Arg. of periapsis
164.9249°
True anomaly
349.33902°
Mean anomaly
349.8339°
Eccentric anomaly
349.58793°
Mean motion
3.35653 °/min
Orbital period
107.25 mins
BSTAR
0.0008791
Loading maneuver chart data...
Computing Atmospheric mass density...
Loading historical data...
Loading historical data...
Loading historical data...
Loading historical data...
Loading historical data...
Loading historical data...
Loading historical data...

Documentation

Showing up to 5 results
|